(289362) = 2005 BR48

Discovered at Kitt Peak on 2005-01-19 by Spacewatch.

Orbit

Orbit type: Main Belt

Note: WebGL enabled browser required.

epoch2024-03-31.0
epoch JD2460400.5
perihelion date2023-01-15.13454
perihelion JD2459959.63454
argument of perihelion (°)278.49378
ascending node (°)145.97710
inclination (°)15.79448
eccentricity0.1329563
perihelion distance (AU)2.9770415
Tisserand w.r.t. Jupiter3.1
ΔV w.r.t. Earth (km/sec)11.7
semimajor axis (AU)3.4335541
mean anomaly (°)68.29581
mean daily motion (°/day)0.15491310
aphelion distance (AU)3.890
period (years)6.36
P-vector [x]0.41007620
P-vector [y]0.90659199
P-vector [z]0.09964173
Q-vector [x]-0.89924613
Q-vector [y]0.38365590
Q-vector [z]0.21015365
absolute magnitude15.31
phase slope0.15
uncertainty0
referenceMPEC 2024-E179
observations used354
oppositions15
arc length (days)7870
first opposition used2002
last opposition used2024
residual rms (arc-secs)0.69
perturbers coarse indicatorM-v
perturbers precise indicator003Ek
first observation date used2002-08-18.0
last observation date used2024-03-05.0
computer nameMPCLINUX
JD of orbit computation2456465.503227
perihelion JD uncertainty (days)2.6682E-04
argument of perihelion uncertainty (°)4.1741E-05
ascending node uncertainty (°)2.7814E-05
inclination uncertainty (°)7.3024E-06
eccentricity uncertainty 6.6610E-08
perihelion distance uncertainty (AU)2.5058E-07
Minimum Orbit Intersection Distances (in AU)
for orbit epoch: 2460400.5, reference: E2024-E73
Mercury2.68232
Venus2.2872
Earth2.04461
Mars1.52519
Jupiter1.55331
Saturn5.92797
Uranus14.9145
Neptune26.6048

Observations

357 total observations over interval: 2002 08 18.45151 – 2024 03 05.175615
These data are available for download (format description).

Date (UT) J2000 RA J2000 Dec Magn Location Ref
2002 08 18.45151 22 28 01.69 -11 29 43.5 19.9   644 – Palomar Mountain/NEAT MPS 284331
2002 08 18.46191 22 28 01.29 -11 29 48.4 20.3   644 – Palomar Mountain/NEAT MPS 284331
2002 08 18.47224 22 28 00.89 -11 29 53.3 20.1   644 – Palomar Mountain/NEAT MPS 284331
2002 09 15.25319 22 10 34.18 -14 57 15.8 19.0 R 644 – Palomar Mountain/NEAT MPS 1063657
2002 09 15.27442 22 10 33.46 -14 57 24.6 19.4 R 644 – Palomar Mountain/NEAT MPS 1063657
2002 09 15.29538 22 10 32.77 -14 57 32.8 19.4 R 644 – Palomar Mountain/NEAT MPS 1063657
2003 12 03.28840 04 07 37.69 -02 39 03.0 19.0 R 699 – Lowell Observatory-LONEOS MPS 284331
2003 12 03.30844 04 07 36.75 -02 39 03.3   699 – Lowell Observatory-LONEOS MPS 284331
2003 12 03.32845 04 07 35.94 -02 39 02.8   699 – Lowell Observatory-LONEOS MPS 284331
2003 12 03.34848 04 07 34.95 -02 39 02.1   699 – Lowell Observatory-LONEOS MPS 284331
2005 01 19.50211 10 15 07.56 +09 05 28.0 20.4 V 691 – Steward Observatory, Kitt Peak-Spacewatch MPS 182698
2005 01 19.52764 10 15 06.90 +09 05 37.4 20.9 V 691 – Steward Observatory, Kitt Peak-Spacewatch MPS 182698
2005 01 19.55261 10 15 06.21 +09 05 46.2 20.7 V 691 – Steward Observatory, Kitt Peak-Spacewatch MPS 182698
2005 02 02.33395 10 07 41.32 +10 39 06.3 20.4 V 691 – Steward Observatory, Kitt Peak-Spacewatch MPS 182698
2005 02 02.36255 10 07 40.19 +10 39 19.2 20.2 V 691 – Steward Observatory, Kitt Peak-Spacewatch MPS 182698
2005 02 02.39481 10 07 38.93 +10 39 33.4 20.1 V 691 – Steward Observatory, Kitt Peak-Spacewatch MPS 182698
2005 02 09.29314 10 03 08.41 +11 31 34.6 19.5 R 699 – Lowell Observatory-LONEOS MPS 182698
2005 02 09.31749 10 03 07.37 +11 31 45.9   699 – Lowell Observatory-LONEOS MPS 182698
2005 02 09.34182 10 03 06.43 +11 31 56.7   699 – Lowell Observatory-LONEOS MPS 182698
2005 02 09.36616 10 03 05.43 +11 32 08.2   699 – Lowell Observatory-LONEOS MPS 182698
2005 03 04.26958 09 47 45.95 +14 22 50.4 20.0 R G96 – Mt. Lemmon Survey MPS 182698
2005 03 04.27487 09 47 45.77 +14 22 52.5 19.6 R G96 – Mt. Lemmon Survey MPS 182698
2005 03 04.28019 09 47 45.58 +14 22 54.7 19.8 R G96 – Mt. Lemmon Survey MPS 182698
2005 03 04.28546 09 47 45.39 +14 22 56.9 20.1 R G96 – Mt. Lemmon Survey MPS 182698
2005 03 14.24676 09 42 26.55 +15 25 25.2 19.4 R G96 – Mt. Lemmon Survey MPS 182698
2005 03 14.25786 09 42 26.23 +15 25 28.3 19.5 R G96 – Mt. Lemmon Survey MPS 182698
2005 03 14.26897 09 42 25.93 +15 25 32.0 18.9 R G96 – Mt. Lemmon Survey MPS 182698
2005 03 14.28006 09 42 25.57 +15 25 36.6 19.0 R G96 – Mt. Lemmon Survey MPS 182698
2008 06 30.33726 21 02 49.49 -09 02 32.3   691 – Steward Observatory, Kitt Peak-Spacewatch MPS 280069
2008 06 30.35509 21 02 49.05 -09 02 35.6   691 – Steward Observatory, Kitt Peak-Spacewatch MPS 280069
2008 06 30.37266 21 02 48.66 -09 02 39.4   691 – Steward Observatory, Kitt Peak-Spacewatch MPS 280069
2008 07 29.32044 20 46 28.05 -11 15 05.1 20.3 V G96 – Mt. Lemmon Survey MPS 280069
2008 07 29.32554 20 46 27.84 -11 15 06.6 20.4 V G96 – Mt. Lemmon Survey MPS 280069
2008 07 29.33058 20 46 27.62 -11 15 08.4 20.3 V G96 – Mt. Lemmon Survey MPS 280069
2008 07 29.33568 20 46 27.40 -11 15 10.1 20.3 V G96 – Mt. Lemmon Survey MPS 280069
2010 01 08.772321 01 41 58.47 -07 04 51.2   C51 – WISE MPS 329128
2010 01 09.037057 01 42 07.97 -07 02 47.0   C51 – WISE MPS 329128
2010 01 09.103146 01 42 10.31 -07 02 15.1   C51 – WISE MPS 329128
2010 01 09.169361 01 42 12.71 -07 01 44.3   C51 – WISE MPS 329128
2010 01 09.235578 01 42 15.13 -07 01 12.4   C51 – WISE MPS 329128
2010 01 09.301666 01 42 17.52 -07 00 41.5   C51 – WISE MPS 329128
2010 01 09.367882 01 42 19.92 -07 00 10.2   C51 – WISE MPS 329128
2010 01 09.500186 01 42 24.78 -06 59 07.6   C51 – WISE MPS 329128
2010 01 16.13208 01 46 48.76 -06 05 19.8   291 – LPL/Spacewatch II MPS 310183
2010 01 16.13934 01 46 49.06 -06 05 15.9   291 – LPL/Spacewatch II MPS 310183
2010 01 16.14669 01 46 49.40 -06 05 13.2   291 – LPL/Spacewatch II MPS 310183
2010 01 17.10571 01 47 31.11 -05 57 13.0   291 – LPL/Spacewatch II MPS 311173
2010 01 17.10949 01 47 31.23 -05 57 10.8   291 – LPL/Spacewatch II MPS 311173
2010 01 17.11319 01 47 31.42 -05 57 08.9   291 – LPL/Spacewatch II MPS 311173
2011 01 02.34019 08 11 34.44 +08 12 34.3 20.6 V 703 – Catalina Sky Survey MPS 363345
2011 01 02.34807 08 11 34.04 +08 12 37.6 20.0 V 703 – Catalina Sky Survey MPS 363345
2011 01 02.35559 08 11 33.82 +08 12 38.5 20.0 V 703 – Catalina Sky Survey MPS 363345
2011 01 02.36311 08 11 33.46 +08 12 41.0 20.3 V 703 – Catalina Sky Survey MPS 363345
2011 01 13.34495 08 03 46.18 +09 09 45.5 19.9 V G96 – Mt. Lemmon Survey MPS 365507
2011 01 13.35218 08 03 45.86 +09 09 47.9 19.7 V G96 – Mt. Lemmon Survey MPS 365507
2011 01 13.35951 08 03 45.50 +09 09 50.6 19.8 V G96 – Mt. Lemmon Survey MPS 365507
2011 01 13.36682 08 03 45.14 +09 09 53.1 20.0 V G96 – Mt. Lemmon Survey MPS 365507
2012 03 25.37438 12 48 06.37 +10 09 51.3 20.1 V G96 – Mt. Lemmon Survey MPS 420171
2012 03 25.38300 12 48 06.01 +10 09 54.9 20.2 V G96 – Mt. Lemmon Survey MPS 420171
2012 03 25.39170 12 48 05.68 +10 09 57.9 19.9 V G96 – Mt. Lemmon Survey MPS 420171
2012 03 25.40038 12 48 05.32 +10 10 01.6 20.1 V G96 – Mt. Lemmon Survey MPS 420171
2012 03 29.52438 12 45 26.917 +10 37 12.86 20.5 g F51 – Pan-STARRS 1, Haleakala MPS 420171
2012 03 29.53580 12 45 26.450 +10 37 17.16 20.6 g F51 – Pan-STARRS 1, Haleakala MPS 420171
2012 04 21.42783 12 31 38.420 +12 29 02.72 21.0 w F51 – Pan-STARRS 1, Haleakala MPS 422762
2012 04 21.44222 12 31 37.960 +12 29 05.35 21.0 w F51 – Pan-STARRS 1, Haleakala MPS 422762
2012 04 21.45670 12 31 37.508 +12 29 08.01 20.9 w F51 – Pan-STARRS 1, Haleakala MPS 422762
2013 05 12.21972 16 13 11.84 +00 08 33.9 21.0 V 691 – Steward Observatory, Kitt Peak-Spacewatch MPS 468556
2013 05 12.23737 16 13 11.10 +00 08 37.5 21.7 V 691 – Steward Observatory, Kitt Peak-Spacewatch MPS 468556
2013 05 12.25247 16 13 10.51 +00 08 40.0 21.7 V 691 – Steward Observatory, Kitt Peak-Spacewatch MPS 468556
2013 05 16.19734 16 10 34.69 +00 19 25.8 21.4 V 691 – Steward Observatory, Kitt Peak-Spacewatch MPS 468556
2013 05 16.21501 16 10 34.02 +00 19 28.5 21.2 V 691 – Steward Observatory, Kitt Peak-Spacewatch MPS 468556
2013 05 16.23011 16 10 33.41 +00 19 31.0 20.9 V 691 – Steward Observatory, Kitt Peak-Spacewatch MPS 468556
2013 06 18.33509 15 49 26.921 +00 36 30.88 20.8 i F51 – Pan-STARRS 1, Haleakala MPS 471144
2013 06 18.34616 15 49 26.568 +00 36 29.94 20.9 i F51 – Pan-STARRS 1, Haleakala MPS 471144
2013 06 18.35770 15 49 26.196 +00 36 28.84 20.8 r F51 – Pan-STARRS 1, Haleakala MPS 471144
2013 06 18.36787 15 49 25.868 +00 36 27.94 21.2 r F51 – Pan-STARRS 1, Haleakala MPS 471144
2015 08 09.56937 00 13 02.414 -07 04 06.48 19.9 i F51 – Pan-STARRS 1, Haleakala MPS 620898
2015 08 09.58095 00 13 02.337 -07 04 10.96 19.9 i F51 – Pan-STARRS 1, Haleakala MPS 620898
2015 08 09.59254 00 13 02.240 -07 04 15.48 19.9 i F51 – Pan-STARRS 1, Haleakala MPS 620898
2015 08 09.60413 00 13 02.153 -07 04 20.03 20.0 i F51 – Pan-STARRS 1, Haleakala MPS 620898
2015 08 14.39380 00 12 19.66 -07 37 03.5 20.4 r G45 – Space Surveillance Telescope, Atom Site MPS 623075
2015 08 14.39898 00 12 19.61 -07 37 05.5 20.2 r G45 – Space Surveillance Telescope, Atom Site MPS 623075
2015 08 14.40410 00 12 19.50 -07 37 07.8 20.5 r G45 – Space Surveillance Telescope, Atom Site MPS 623075
2015 08 14.40976 00 12 19.46 -07 37 09.9 20.9 r G45 – Space Surveillance Telescope, Atom Site MPS 623075
2015 08 14.41175 00 12 19.42 -07 37 10.7 20.4 r G45 – Space Surveillance Telescope, Atom Site MPS 623075
2015 08 14.41704 00 12 19.33 -07 37 13.4 20.7 r G45 – Space Surveillance Telescope, Atom Site MPS 623075
2015 08 14.42223 00 12 19.27 -07 37 15.5 20.3 r G45 – Space Surveillance Telescope, Atom Site MPS 623075
2015 08 14.42678 00 12 19.27 -07 37 17.1 20.2 r G45 – Space Surveillance Telescope, Atom Site MPS 623075
2015 08 14.43196 00 12 19.18 -07 37 19.4 20.1 r G45 – Space Surveillance Telescope, Atom Site MPS 623075
2015 09 08.49867 00 02 17.669 -11 01 32.59 19.4 i F51 – Pan-STARRS 1, Haleakala MPS 626390
2015 09 08.50969 00 02 17.266 -11 01 38.22 19.4 i F51 – Pan-STARRS 1, Haleakala MPS 626390
2015 09 08.52071 00 02 16.874 -11 01 43.89 19.5 i F51 – Pan-STARRS 1, Haleakala MPS 626390
